SCP
2 1 1 2 2 2 2 1 1 1 2 2 2 1 1 1 1 1 1 1 2 2 3 3 2 2 1 1 1 1 1 1 1 1 1 1 1 1 1 1 0 0 0
2 1 1 2 2 1 1 1 1 1 1 1 1 1 1 1 1 1 1 1 1 2 2 2 2 2 1 1 1 1 1 1 1 1 1 1 1 1 1 1 1 0 0
2 2 1 2 1 1 1 1 1 1 1 1 1 1 1 1 1 1 1 1 1 1 2 2 2 2 2 1 1 1 2 2 1 1 1 1 1 1 1 1 1 1 0
2 1 1 1 1 1 1 1 1 1 1 1 0 0 0 0 0 0 0 1 1 1 1 1 1 2 2 2 2 2 2 2 1 1 1 1 1 1 1 1 1 1 1
1 1 1 1 1 1 1 1 1 1 1 0 0 0 0 0 0 0 0 0 0 1 1 1 1 1 1 1 1 2 2 2 1 1 1 1 1 1 1 1 1 1 1
1 1 1 1 1 1 1 1 1 1 1 0 0 0 0 0 0 0 0 0 0 1 1 1 1 1 1 1 1 1 2 2 1 1 1 1 1 1 1 1 1 1 1
1 1 1 1 1 1 1 1 1 1 0 0 0 0 0 0 0 0 0 0 0 0 1 1 1 1 1 1 1 1 1 2 1 1 1 1 1 1 1 1 1 1 1
0 0 0 0 0 0 0 0 0 0 0 0 0 0 0 0 0 0 0 0 0 0 0 1 1 1 1 1 1 1 1 1 1 1 1 1 1 1 1 1 1 1 1
0 0 0 0 0 0 0 0 0 0 0 0 0 0 0 0 0 0 0 0 0 0 0 0 1 1 1 1 1 1 1 1 1 1 1 1 1 1 1 1 1 1 1
0 0 0 0 0 0 0 0 0 0 0 0 0 0 0 0 0 0 0 0 0 0 0 0 0 0 0 0 0 0 0 1 1 1 1 1 1 1 1 1 1 1 1
0 0 0 0 0 0 0 0 0 0 0 0 0 0 0 0 0 0 0 0 0 0 0 0 0 0 0 0 0 0 0 0 1 1 1 1 1 1 1 1 1 1 1
0 0 0 0 0 0 0 0 0 0 0 0 0 0 0 0 0 0 0 0 0 0 0 0 0 0 0 0 0 0 0 0 1 1 1 1 1 1 1 1 1 1 1
0 0 0 0 0 0 0 0 0 0 0 0 0 0 0 0 0 0 0 0 0 0 0 0 0 0 0 0 0 0 0 0 0 0 1 1 1 1 1 1 1 1 1
0 0 0 0 0 0 0 0 0 0 0 0 0 0 0 0 0 0 0 0 0 0 0 0 0 0 0 0 0 1 1 0 0 0 0 0 0 1 1 1 1 1 1
0 0 0 0 0 0 0 0 0 0 0 0 0 0 0 0 0 0 0 0 0 0 0 0 0 0 0 0 0 0 1 0 0 0 0 0 0 0 0 0 0 0 0
0 0 0 0 0 0 0 0 0 0 0 0 0 0 0 0 0 0 0 0 0 0 0 0 0 1 1 1 0 0 0 0 0 0 0 0 0 0 0 0 0 0 0
0 0 0 0 0 0 0 0 0 0 0 0 0 0 0 0 0 0 0 0 0 0 0 0 1 1 1 1 1 1 0 0 0 0 0 0 0 0 0 0 0 0 0
0 0 0 0 0 0 0 0 0 0 0 0 0 0 0 0 0 0 0 0 0 0 0 0 1 1 1 1 1 1 0 0 0 0 0 0 0 0 0 0 0 0 0
0 0 0 0 0 0 0 0 0 0 0 0 0 0 0 0 0 0 0 0 0 0 0 0 1 2 2 2 1 1 0 0 0 0 0 0 0 0 0 0 0 0 0
0 0 0 0 0 0 0 0 0 0 0 0 0 0 0 0 0 0 0 0 0 0 0 0 1 2 3 2 1 1 0 0 0 0 0 0 0 0 0 0 0 0 0
0 0 0 0 0 0 0 0 0 0 0 0 0 0 0 0 0 0 0 0 0 0 0 0 0 1 2 2 1 1 0 0 0 0 0 0 0 0 0 0 0 0 0
0 0 0 0 0 0 0 0 0 0 0 0 0 0 0 0 0 0 0 0 0 0 0 0 0 1 1 1 1 1 0 0 0 0 0 0 0 0 0 0 0 0 0
0 0 0 0 0 0 0 0 0 0 0 0 0 0 0 0 0 0 0 0 0 0 0 0 0 0 1 1 1 1 0 0 0 0 0 0 0 0 0 0 0 0 0
0 0 0 0 0 0 0 0 0 0 0 0 0 0 0 0 0 0 0 0 0 0 0 0 0 0 1 1 1 1 0 0 0 0 0 0 0 0 0 0 0 0 0
0 0 0 0 0 0 0 0 0 0 0 0 0 0 0 0 0 0 0 0 0 0 0 0 0 0 0 1 1 1 0 0 0 0 0 0 0 0 0 0 0 0 0
0 0 0 0 0 0 0 0 0 0 0 0 0 0 0 0 0 0 0 0 0 0 0 0 0 0 0 0 0 1 0 0 0 0 0 0 0 0 0 0 0 0 0
Wind_Speed
4 3 3 3 3 3 4 4 5 6 6 5 6 7 7 7 7 6 5 13 14 17 20 21 22 22 22 22 21 21 21 21 19 18 17 17 16 16 15 14 14 13 13
3 3 3 3 3 3 3 4 5 5 5 5 7 7 7 7 7 7 6 8 13 15 19 22 22 22 22 22 22 21 21 21 20 19 18 17 17 17 16 15 15 14 13
3 3 2 3 3 3 4 3 4 4 5 5 7 7 6 7 7 7 8 6 7 13 20 21 21 22 22 23 22 21 21 20 20 20 19 18 18 17 17 16 15 15 14
1 1 2 3 3 3 3 3 3 3 4 5 5 5 6 6 8 8 8 8 7 8 14 21 22 22 22 23 23 22 21 20 20 20 20 19 19 18 18 17 17 16 15
0 1 1 2 2 2 3 3 3 3 4 5 5 5 5 6 7 8 9 10 9 9 8 12 20 21 23 24 23 22 22 21 21 21 21 20 20 19 18 18 18 17 17
1 0 1 2 2 2 3 3 4 4 3 4 5 5 5 6 5 7 9 9 9 11 10 10 9 13 22 23 21 21 22 21 21 21 21 21 20 19 19 18 18 18 18
3 2 1 2 2 2 4 4 4 4 4 2 2 3 4 6 7 7 7 7 9 10 9 10 8 7 8 18 20 20 22 22 21 21 21 20 20 19 19 19 18 18 19
6 4 3 3 2 2 3 4 3 3 3 3 3 2 3 3 4 7 6 7 8 7 9 11 9 9 7 5 10 20 20 21 21 21 21 20 20 19 19 18 18 18 18
6 6 6 4 3 2 2 3 3 4 4 3 4 3 2 3 3 3 4 6 6 6 7 7 9 9 9 7 7 14 20 19 20 21 20 20 19 18 18 19 19 18 18
6 6 6 5 4 3 2 2 1 1 2 3 2 3 4 3 2 4 4 2 5 6 6 6 8 9 9 7 9 12 17 18 19 20 19 19 19 19 18 19 20 19 19
5 6 6 6 4 2 3 2 1 1 1 2 2 2 3 3 3 3 4 4 2 3 5 6 6 6 8 8 7 10 15 16 17 17 17 17 18 19 19 19 20 20 20
4 6 6 5 5 3 3 3 2 2 1 2 2 2 2 2 2 3 4 4 3 3 3 4 5 6 6 7 10 13 15 15 16 16 15 15 16 17 18 19 20 20 20
3 5 5 4 4 5 5 4 3 4 3 3 3 2 2 3 2 2 2 3 3 3 3 3 4 5 6 6 7 14 14 14 14 14 14 14 14 15 16 17 17 18 18
3 4 4 4 5 5 6 5 4 4 4 4 4 4 3 3 2 2 2 2 2 3 3 4 2 4 4 5 7 11 7 13 12 12 12 12 12 13 14 14 14 15 15
4 4 4 5 5 5 5 5 3 5 4 4 5 5 4 4 3 2 2 3 2 2 4 4 2 2 3 3 6 5 5 9 10 10 9 9 9 10 11 12 13 13 13
4 5 5 5 5 5 5 4 4 5 5 5 4 5 5 4 3 3 3 3 3 3 4 4 3 2 3 5 6 5 6 11 10 9 8 7 8 8 9 10 10 11 12
5 5 6 6 6 6 6 5 5 6 5 5 5 5 6 6 4 4 3 3 3 3 4 4 2 1 3 7 6 6 6 6 6 8 7 6 6 7 8 8 9 10 11
6 6 6 6 7 7 6 6 7 7 6 7 6 6 7 6 6 5 4 4 4 4 4 4 3 2 3 7 8 8 6 5 5 7 7 6 6 6 6 7 8 9 9
7 7 6 7 7 7 7 7 7 7 7 7 7 7 7 6 7 5 5 5 4 4 4 4 4 2 2 6 8 7 7 5 5 6 7 7 7 7 6 6 6 7 8
7 7 7 7 8 8 8 8 8 8 8 8 8 7 7 7 7 7 6 6 5 4 4 3 3 3 3 5 7 8 6 4 3 4 6 6 9 9 8 7 7 8 8
8 7 7 7 8 7 8 9 8 9 8 8 8 7 8 10 12 9 6 6 6 5 4 4 4 3 4 7 7 5 7 6 3 2 4 3 4 5 5 6 7 9 10
7 7 8 8 9 9 11 14 11 8 8 8 8 8 9 11 13 14 14 12 11 8 7 6 5 5 6 7 6 8 8 7 4 3 3 3 3 4 4 3 6 10 11
7 8 8 8 9 11 16 17 18 11 9 9 10 9 10 11 10 7 10 14 14 15 13 8 7 7 7 8 9 10 9 8 4 7 5 4 3 3 4 4 8 10 11
8 8 9 9 10 12 16 16 18 13 9 10 11 11 10 10 10 8 6 7 8 9 11 8 8 7 6 8 11 11 10 7 5 4 4 4 3 3 3 4 7 9 11
9 9 9 10 10 12 15 16 15 8 8 10 11 11 11 11 13 13 8 7 7 6 8 9 9 8 9 10 10 9 10 10 8 4 2 5 4 3 3 3 5 9 9
9 9 10 10 10 10 13 15 13 6 8 8 8 9 14 14 13 13 10 8 8 7 6 6 5 5 6 9 14 13 13 12 9 5 4 5 5 5 4 2 3 4 6
Wind_Direction
226 230 233 231 226 218 208 208 207 206 208 220 230 237 244 247 248 244 250 253 240 220 212 207 206 203 200 199 199 198 198 197 195 192 189 187 184 184 184 184 183 182 182
220 225 232 240 241 230 218 210 208 208 210 215 230 232 242 249 248 245 248 257 249 232 221 216 211 209 207 205 203 203 202 201 198 196 194 191 189 188 188 188 188 186 185
220 223 233 243 246 239 229 218 217 211 215 220 229 231 237 240 243 242 245 245 246 240 230 223 218 214 212 210 208 206 205 205 202 200 198 195 193 192 191 190 191 191 189
219 221 241 252 252 243 225 218 215 215 221 223 228 230 232 233 237 239 237 238 235 239 237 231 223 218 215 212 211 210 208 208 205 202 201 198 196 195 194 193 193 193 193
137 184 247 262 265 253 239 235 221 212 220 225 232 235 234 234 234 237 232 231 228 229 229 232 229 226 223 220 217 214 212 210 207 204 203 202 200 199 197 196 195 196 196
336 346 265 280 277 261 255 243 236 225 223 223 242 248 240 238 234 232 230 227 223 223 223 225 227 232 230 226 221 218 216 213 209 206 205 204 203 201 199 199 198 198 198
326 321 292 295 282 258 256 248 235 234 235 209 230 273 265 243 234 233 226 220 222 221 218 218 216 219 228 224 222 221 219 217 212 209 207 206 205 203 201 201 201 200 200
324 318 293 276 268 272 286 271 236 231 236 198 191 226 289 296 255 233 221 218 218 212 218 219 213 212 216 214 217 220 219 218 215 211 207 206 207 204 202 203 202 202 202
319 314 300 278 258 236 262 277 254 229 241 234 201 188 209 253 296 288 236 222 211 206 213 212 209 211 211 213 212 217 218 216 216 215 210 206 206 204 202 203 204 204 204
325 323 317 298 263 234 238 264 281 236 231 250 244 224 217 208 235 302 314 263 219 211 210 212 211 209 206 206 208 207 212 212 214 216 213 208 206 204 204 205 207 207 207
332 338 333 329 305 268 247 248 276 296 236 246 242 241 246 237 219 219 284 309 297 239 212 208 206 205 205 204 201 209 208 209 211 212 211 207 205 205 207 209 211 211 210
324 333 338 341 335 318 287 273 266 271 265 275 271 240 221 230 233 215 238 263 272 266 229 209 204 206 201 199 208 210 208 207 206 208 207 204 203 205 208 211 214 214 213
311 315 332 334 334 323 308 294 284 275 266 268 270 263 242 231 221 215 229 256 265 275 268 230 210 200 195 190 203 207 207 202 201 202 201 200 200 201 204 208 211 213 214
274 287 307 316 318 320 321 313 294 279 269 262 265 265 265 259 230 210 212 225 275 288 277 254 224 196 183 177 189 186 191 189 187 187 189 193 195 197 199 202 204 207 210
287 304 308 311 310 312 313 314 298 287 281 264 261 261 260 263 250 228 214 194 203 250 261 256 241 194 165 143 155 148 140 153 156 161 170 180 188 194 198 200 203 205 208
288 301 303 303 302 302 301 303 297 291 287 275 264 261 259 258 257 241 222 215 201 210 247 253 235 198 161 140 129 119 117 121 123 135 149 169 186 194 199 202 205 207 209
270 275 278 283 287 289 289 290 289 291 287 285 281 268 259 256 253 248 230 218 217 203 236 259 247 187 141 142 125 113 110 105 109 118 133 156 179 190 197 202 204 206 206
257 256 259 264 268 274 274 275 278 285 278 278 275 270 264 262 252 244 233 225 221 216 220 244 241 193 153 153 140 131 119 110 103 108 118 132 146 163 179 191 198 203 204
256 255 254 255 258 260 261 261 262 267 265 263 263 261 258 255 253 245 235 230 225 227 214 227 236 207 145 149 138 123 115 109 105 107 100 103 114 124 137 156 171 179 180
259 258 255 251 252 253 254 255 256 259 261 262 259 257 253 244 242 241 236 229 222 222 218 226 232 208 163 155 145 142 135 121 114 101 93 90 96 95 103 123 139 149 153
270 261 259 258 254 253 254 250 247 254 255 259 260 256 253 255 251 242 234 221 213 214 211 217 226 205 174 169 163 152 145 133 105 118 113 91 86 79 73 91 114 130 136
273 268 263 261 260 264 264 258 252 246 243 246 253 255 259 266 263 255 245 230 211 205 207 208 219 212 197 178 161 154 149 149 150 156 124 96 77 75 53 62 108 121 124
277 273 268 264 263 263 261 259 258 251 239 240 241 245 258 260 257 245 244 239 226 216 204 198 211 215 200 184 166 163 166 159 149 154 127 99 73 69 46 61 101 115 118
279 276 273 268 266 268 264 257 257 255 244 240 237 234 236 244 247 238 236 235 224 215 209 203 206 213 208 192 178 170 158 129 103 119 111 111 97 74 51 49 76 106 116
286 279 274 271 268 271 268 263 258 250 245 244 240 235 231 233 235 229 222 224 221 220 213 201 199 209 205 192 171 152 151 150 147 145 116 117 122 100 65 46 60 87 103
285 284 281 275 269 270 271 268 261 246 245 246 241 238 234 229 227 220 212 208 209 204 185 182 185 194 195 186 175 172 166 163 153 150 156 126 133 128 107 67 58 75 89